Find Starlink 30778

NORAD ID: 58182 Int'l Des: 2023-167 Owner: SPXS Country: US Constellation: starlink operational
LEOCIRCULAR

当前视图

正在加载3D地球...

About Starlink 30778

Starlink 30778 (NORAD 58182) is a starlink constellation satellite (v2 mini) launched Oct 30, 2023 by SPXS of US. It operates in LEO, CIRCULAR orbit with a mass of 730.00 kg.

即将过境

Passes for default location (London). Set your location on the main map for personalized predictions.

高度历史

Loading altitude history...

两行轨道根数

1 58182U 23167H 26263.91637142 .00000143 00000-0 14699-4 0 9996
2 58182 43.0017 120.7603 0000976 274.4174 85.6567 15.27578306160841
Epoch: Sep 20, 2026 • Age: 12 hours

当前状态

高度 495.4 km
远地点 / 近地点 N/A
速度 7.62 km/s
星下点 -42.31°S, 111.53°W
发射日期 Oct 30, 2023
运行时间 2.8 years
类型 internet

技术详情

分类 Payload
质量 730.00 kg
干质量 700.00 kg
长度 0.30 m
跨度 29.00 m
形状 ? Box + pan
制造商 SPXS
平台类型 Starlink V2M
阶段状态 In Orbit
所有者/国家 SPXS/US

Most Searched